Year,Month,Day,Hour,Minute,Value (Times are PST for temperature in C)
2013,03,23,00,02,2.50
2013,03,23,00,03,2.60
2013,03,23,00,04,2.60
2013,03,23,00,05,2.60
2013,03,23,00,06,2.60
2013,03,23,00,07,2.70
2013,03,23,00,08,2.70
2013,03,23,00,09,2.70
2013,03,23,00,10,2.70
2013,03,23,00,11,2.70
2013,03,23,00,12,2.70
2013,03,23,00,13,2.60
2013,03,23,00,14,2.60
2013,03,23,00,15,2.60
2013,03,23,00,17,2.60
2013,03,23,00,18,2.50
2013,03,23,00,19,2.50
2013,03,23,00,21,2.60
2013,03,23,00,22,2.60
2013,03,23,00,23,2.60
2013,03,23,00,24,2.70
2013,03,23,00,26,2.70
2013,03,23,00,27,2.70
2013,03,23,00,28,2.80
2013,03,23,00,29,2.80
2013,03,23,00,31,2.80
2013,03,23,00,32,2.80
2013,03,23,00,33,2.80
2013,03,23,00,34,2.80
2013,03,23,00,35,2.80
2013,03,23,00,36,2.80
2013,03,23,00,37,2.80
2013,03,23,00,38,2.80
2013,03,23,00,39,2.80
2013,03,23,00,40,2.80
2013,03,23,00,41,2.80
2013,03,23,00,42,2.80
2013,03,23,00,43,2.70
2013,03,23,00,44,2.70
2013,03,23,00,45,2.70
2013,03,23,00,46,2.60
2013,03,23,00,47,2.60
2013,03,23,00,48,2.60
2013,03,23,00,49,2.60
2013,03,23,00,50,2.60
2013,03,23,00,52,2.50
2013,03,23,00,53,2.60
2013,03,23,00,54,2.60
2013,03,23,00,55,2.60
2013,03,23,00,56,2.50
2013,03,23,00,57,2.50
2013,03,23,00,58,2.50
2013,03,23,00,59,2.50
2013,03,23,01,00,2.40
2013,03,23,01,01,2.40
2013,03,23,01,03,2.40
2013,03,23,01,04,2.40
2013,03,23,01,05,2.30
2013,03,23,01,06,2.30
2013,03,23,01,07,2.30
2013,03,23,01,08,2.30
2013,03,23,01,09,2.30
2013,03,23,01,10,2.30
2013,03,23,01,11,2.30
2013,03,23,01,12,2.40
2013,03,23,01,13,2.40
2013,03,23,01,14,2.40
2013,03,23,01,15,2.40
2013,03,23,01,17,2.40
2013,03,23,01,18,2.50
2013,03,23,01,19,2.50
2013,03,23,01,21,2.50
2013,03,23,01,22,2.50
2013,03,23,01,23,2.50
2013,03,23,01,24,2.50
2013,03,23,01,25,2.50
2013,03,23,01,26,2.40
2013,03,23,01,27,2.40
2013,03,23,01,28,2.40
2013,03,23,01,29,2.40
2013,03,23,01,31,2.40
2013,03,23,01,32,2.30
2013,03,23,01,33,2.30
2013,03,23,01,35,2.30
2013,03,23,01,36,2.30
2013,03,23,01,37,2.20
2013,03,23,01,38,2.20
2013,03,23,01,39,2.20
2013,03,23,01,41,2.20
2013,03,23,01,42,2.20
2013,03,23,01,43,2.20
2013,03,23,01,45,2.30
2013,03,23,01,46,2.30
2013,03,23,01,47,2.30
2013,03,23,01,48,2.30
2013,03,23,01,50,2.30
2013,03,23,01,51,2.40
2013,03,23,01,52,2.30
2013,03,23,01,53,2.40
2013,03,23,01,54,2.40
2013,03,23,01,55,2.40
2013,03,23,01,56,2.40
2013,03,23,01,58,2.40
2013,03,23,01,59,2.40
2013,03,23,02,00,2.50
2013,03,23,02,01,2.50
2013,03,23,02,03,2.50
2013,03,23,02,04,2.50
2013,03,23,02,05,2.50
2013,03,23,02,07,2.60
2013,03,23,02,08,2.60
2013,03,23,02,09,2.60
2013,03,23,02,10,2.70
2013,03,23,02,11,2.70
2013,03,23,02,12,2.80
2013,03,23,02,13,2.80
2013,03,23,02,14,2.80
2013,03,23,02,15,2.90
2013,03,23,02,17,2.90
2013,03,23,02,18,2.90
2013,03,23,02,19,3.00
2013,03,23,02,20,3.00
2013,03,23,02,21,3.00
2013,03,23,02,23,3.00
2013,03,23,02,24,3.10
2013,03,23,02,25,3.10
2013,03,23,02,26,3.10
2013,03,23,02,27,3.10
2013,03,23,02,28,3.10
2013,03,23,02,30,3.10
2013,03,23,02,31,3.10
2013,03,23,02,32,3.10
2013,03,23,02,33,3.10
2013,03,23,02,35,3.10
2013,03,23,02,36,3.20
2013,03,23,02,37,3.20
2013,03,23,02,38,3.20
2013,03,23,02,40,3.20
2013,03,23,02,41,3.20
2013,03,23,02,42,3.30
2013,03,23,02,43,3.30
2013,03,23,02,45,3.30
2013,03,23,02,46,3.30
2013,03,23,02,47,3.30
2013,03,23,02,48,3.30
2013,03,23,02,50,3.30
2013,03,23,02,51,3.30
2013,03,23,02,52,3.30
2013,03,23,02,54,3.30
2013,03,23,02,55,3.30
2013,03,23,02,56,3.30
2013,03,23,02,57,3.30
2013,03,23,02,58,3.30
2013,03,23,02,59,3.30
2013,03,23,03,00,3.30
2013,03,23,03,01,3.30
2013,03,23,03,02,3.30
2013,03,23,03,04,3.30
2013,03,23,03,05,3.30
2013,03,23,03,06,3.30
2013,03,23,03,07,3.30
2013,03,23,03,09,3.30
2013,03,23,03,10,3.40
2013,03,23,03,11,3.40
2013,03,23,03,13,3.40
2013,03,23,03,14,3.40
2013,03,23,03,15,3.40
2013,03,23,03,16,3.40
2013,03,23,03,17,3.40
2013,03,23,03,19,3.40
2013,03,23,03,20,3.40
2013,03,23,03,21,3.30
2013,03,23,03,22,3.30
2013,03,23,03,24,3.30
2013,03,23,03,25,3.30
2013,03,23,03,26,3.30
2013,03,23,03,27,3.30
2013,03,23,03,28,3.30
2013,03,23,03,30,3.30
2013,03,23,03,31,3.30
2013,03,23,03,32,3.20
2013,03,23,03,33,3.20
2013,03,23,03,34,3.10
2013,03,23,03,36,3.10
2013,03,23,03,37,3.10
2013,03,23,03,38,3.20
2013,03,23,03,39,3.20
2013,03,23,03,41,3.20
2013,03,23,03,42,3.20
2013,03,23,03,43,3.30
2013,03,23,03,44,3.30
2013,03,23,03,45,3.30
2013,03,23,03,47,3.30
2013,03,23,03,48,3.30
2013,03,23,03,49,3.30
2013,03,23,03,50,3.20
2013,03,23,03,52,3.20
2013,03,23,03,53,3.10
2013,03,23,03,54,3.00
2013,03,23,03,55,2.90
2013,03,23,03,57,2.90
2013,03,23,03,58,2.90
2013,03,23,03,59,2.90
2013,03,23,04,00,2.90
2013,03,23,04,01,2.90
2013,03,23,04,03,3.00
2013,03,23,04,04,3.10
2013,03,23,04,05,3.10
2013,03,23,04,06,3.10
2013,03,23,04,08,3.20
2013,03,23,04,09,3.20
2013,03,23,04,10,3.10
2013,03,23,04,11,3.10
2013,03,23,04,13,3.10
2013,03,23,04,14,3.10
2013,03,23,04,15,2.90
2013,03,23,04,16,2.90
2013,03,23,04,17,2.80
2013,03,23,04,18,2.80
2013,03,23,04,19,2.80
2013,03,23,04,20,2.80
2013,03,23,04,21,2.70
2013,03,23,04,22,2.70
2013,03,23,04,24,2.70
2013,03,23,04,25,2.70
2013,03,23,04,26,2.70
2013,03,23,04,27,2.70
2013,03,23,04,28,2.60
2013,03,23,04,30,2.60
2013,03,23,04,31,2.60
2013,03,23,04,32,2.60
2013,03,23,04,33,2.60
2013,03,23,04,34,2.60
2013,03,23,04,35,2.60
2013,03,23,04,36,2.60
2013,03,23,04,37,2.60
2013,03,23,04,38,2.50
2013,03,23,04,39,2.50
2013,03,23,04,40,2.50
2013,03,23,04,41,2.40
2013,03,23,04,42,2.40
2013,03,23,04,43,2.40
2013,03,23,04,44,2.40
2013,03,23,04,45,2.40
2013,03,23,04,46,2.40
2013,03,23,04,47,2.40
2013,03,23,04,48,2.40
2013,03,23,04,49,2.40
2013,03,23,04,50,2.30
2013,03,23,04,51,2.30
2013,03,23,04,52,2.30
2013,03,23,04,53,2.30
2013,03,23,04,54,2.40
2013,03,23,04,55,2.30
2013,03,23,04,56,2.30
2013,03,23,04,57,2.30
2013,03,23,04,58,2.30
2013,03,23,04,59,2.30
2013,03,23,05,00,2.40
2013,03,23,05,01,2.40
2013,03,23,05,02,2.40
2013,03,23,05,04,2.40
2013,03,23,05,05,2.40
2013,03,23,05,06,2.40
2013,03,23,05,07,2.50
2013,03,23,05,09,2.50
2013,03,23,05,10,2.50
2013,03,23,05,11,2.60
2013,03,23,05,12,2.60
2013,03,23,05,14,2.60
2013,03,23,05,15,2.70
2013,03,23,05,16,2.70
2013,03,23,05,17,2.70
2013,03,23,05,18,2.80
2013,03,23,05,19,2.80
2013,03,23,05,20,2.80
2013,03,23,05,21,2.80
2013,03,23,05,22,2.80
2013,03,23,05,23,2.80
2013,03,23,05,24,2.80
2013,03,23,05,26,2.70
2013,03,23,05,27,2.70
2013,03,23,05,28,2.60
2013,03,23,05,29,2.60
2013,03,23,05,31,2.60
2013,03,23,05,32,2.50
2013,03,23,05,33,2.40
2013,03,23,05,34,2.40
2013,03,23,05,36,2.40
2013,03,23,05,37,2.40
2013,03,23,05,38,2.40
2013,03,23,05,40,2.40
2013,03,23,05,41,2.30
2013,03,23,05,42,2.30
2013,03,23,05,43,2.30
2013,03,23,05,45,2.30
2013,03,23,05,46,2.30
2013,03,23,05,47,2.20
2013,03,23,05,48,2.20
2013,03,23,05,50,2.20
2013,03,23,05,51,2.20
2013,03,23,05,52,2.20
2013,03,23,05,53,2.20
2013,03,23,05,54,2.20
2013,03,23,05,56,2.20
2013,03,23,05,57,2.30
2013,03,23,05,58,2.30
2013,03,23,05,59,2.40
2013,03,23,06,01,2.40
2013,03,23,06,02,2.50
2013,03,23,06,03,2.50
2013,03,23,06,04,2.60
2013,03,23,06,06,2.60
2013,03,23,06,07,2.70
2013,03,23,06,08,2.70
2013,03,23,06,09,2.70
2013,03,23,06,11,2.70
2013,03,23,06,12,2.80
2013,03,23,06,13,2.80
2013,03,23,06,14,2.80
2013,03,23,06,16,2.80
2013,03,23,06,17,2.90
2013,03,23,06,18,2.90
2013,03,23,06,20,2.90
2013,03,23,06,21,3.00
2013,03,23,06,22,3.10
2013,03,23,06,23,3.10
2013,03,23,06,24,3.10
2013,03,23,06,26,3.10
2013,03,23,06,27,3.10
2013,03,23,06,28,3.00
2013,03,23,06,29,2.90
2013,03,23,06,30,2.90
2013,03,23,06,32,2.80
2013,03,23,06,33,2.80
2013,03,23,06,34,2.70
2013,03,23,06,35,2.70
2013,03,23,06,37,2.70
2013,03,23,06,38,2.60
2013,03,23,06,39,2.60
2013,03,23,06,40,2.60
2013,03,23,06,42,2.60
2013,03,23,06,43,2.70
2013,03,23,06,44,2.70
2013,03,23,06,45,2.70
2013,03,23,06,46,2.80
2013,03,23,06,48,2.80
2013,03,23,06,49,2.90
2013,03,23,06,50,2.90
2013,03,23,06,51,3.00
2013,03,23,06,52,3.10
2013,03,23,06,53,3.10
2013,03,23,06,54,3.10
2013,03,23,06,55,3.20
2013,03,23,06,56,3.20
2013,03,23,06,58,3.20
2013,03,23,06,59,3.20
2013,03,23,07,00,3.30
2013,03,23,07,01,3.30
2013,03,23,07,03,3.40
2013,03,23,07,04,3.40
2013,03,23,07,05,3.40
2013,03,23,07,06,3.40
2013,03,23,07,07,3.40
2013,03,23,07,08,3.40
2013,03,23,07,09,3.40
2013,03,23,07,10,3.30
2013,03,23,07,11,3.30
2013,03,23,07,13,3.30
2013,03,23,07,14,3.30
2013,03,23,07,15,3.20
2013,03,23,07,16,3.10
2013,03,23,07,17,3.10
2013,03,23,07,19,3.00
2013,03,23,07,20,2.90
2013,03,23,07,21,2.90
2013,03,23,07,22,2.90
2013,03,23,07,24,3.00
2013,03,23,07,25,3.10
2013,03,23,07,26,3.20
2013,03,23,07,27,3.20
2013,03,23,07,28,3.20
2013,03,23,07,30,3.30
2013,03,23,07,31,3.30
2013,03,23,07,32,3.30
2013,03,23,07,33,3.40
2013,03,23,07,35,3.40
2013,03,23,07,36,3.50
2013,03,23,07,37,3.60
2013,03,23,07,38,3.60
2013,03,23,07,40,3.70
2013,03,23,07,41,3.80
2013,03,23,07,42,3.80
2013,03,23,07,43,3.80
2013,03,23,07,45,3.90
2013,03,23,07,46,3.90
2013,03,23,07,47,4.00
2013,03,23,07,48,4.00
2013,03,23,07,50,4.00
2013,03,23,07,51,4.10
2013,03,23,07,52,4.10
2013,03,23,07,53,4.10
2013,03,23,07,55,4.10
2013,03,23,07,56,4.10
2013,03,23,07,57,4.10
2013,03,23,07,58,4.10
2013,03,23,08,00,4.10
2013,03,23,08,01,4.10
2013,03,23,08,02,4.10
2013,03,23,08,03,4.10
2013,03,23,08,05,4.10
2013,03,23,08,06,4.10
2013,03,23,08,07,4.10
2013,03,23,08,08,4.10
2013,03,23,08,10,4.10
2013,03,23,08,11,4.10
2013,03,23,08,12,4.10
2013,03,23,08,13,4.10
2013,03,23,08,14,4.20
2013,03,23,08,16,4.20
2013,03,23,08,17,4.20
2013,03,23,08,18,4.20
2013,03,23,08,19,4.20
2013,03,23,08,21,4.20
2013,03,23,08,22,4.20
2013,03,23,08,23,4.20
2013,03,23,08,24,4.20
2013,03,23,08,26,4.20
2013,03,23,08,27,4.20
2013,03,23,08,28,4.20
2013,03,23,08,30,4.20
2013,03,23,08,31,4.20
2013,03,23,08,32,4.20
2013,03,23,08,33,4.20
2013,03,23,08,35,4.20
2013,03,23,08,36,4.20
2013,03,23,08,37,4.20
2013,03,23,08,38,4.20
2013,03,23,08,39,4.20
2013,03,23,08,40,4.20
2013,03,23,08,41,4.20
2013,03,23,08,42,4.20
2013,03,23,08,43,4.20
2013,03,23,08,45,4.30
2013,03,23,08,46,4.30
2013,03,23,08,47,4.30
2013,03,23,08,48,4.30
2013,03,23,08,49,4.30
2013,03,23,08,50,4.30
2013,03,23,08,51,4.30
2013,03,23,08,52,4.30
2013,03,23,08,53,4.30
2013,03,23,08,54,4.30
2013,03,23,08,55,4.40
2013,03,23,08,56,4.40
2013,03,23,08,57,4.40
2013,03,23,08,58,4.40
2013,03,23,08,59,4.40
2013,03,23,09,01,4.40
2013,03,23,09,02,4.40
2013,03,23,09,03,4.40
2013,03,23,09,04,4.40
2013,03,23,09,05,4.40
2013,03,23,09,06,4.40
2013,03,23,09,07,4.40
2013,03,23,09,08,4.40
2013,03,23,09,09,4.50
2013,03,23,09,11,4.60
2013,03,23,09,12,4.60
2013,03,23,09,13,4.60
2013,03,23,09,14,4.70
2013,03,23,09,16,4.70
2013,03,23,09,17,4.70
2013,03,23,09,18,4.70
2013,03,23,09,20,4.70
2013,03,23,09,21,4.60
2013,03,23,09,22,4.70
2013,03,23,09,23,4.60
2013,03,23,09,24,4.70
2013,03,23,09,25,4.60
2013,03,23,09,26,4.70
2013,03,23,09,27,4.70
2013,03,23,09,28,4.60
2013,03,23,09,29,4.60
2013,03,23,09,31,4.60
2013,03,23,09,32,4.60
2013,03,23,09,33,4.60
2013,03,23,09,35,4.60
2013,03,23,09,36,4.60
2013,03,23,09,37,4.60
2013,03,23,09,38,4.60
2013,03,23,09,39,4.60
2013,03,23,09,40,4.60
2013,03,23,09,42,4.60
2013,03,23,09,43,4.60
2013,03,23,09,44,4.60
2013,03,23,09,45,4.60
2013,03,23,09,47,4.60
2013,03,23,09,48,4.50
2013,03,23,09,49,4.50
2013,03,23,09,50,4.50
2013,03,23,09,51,4.50
2013,03,23,09,53,4.50
2013,03,23,09,54,4.50
2013,03,23,09,55,4.50
2013,03,23,09,56,4.50
2013,03,23,09,57,4.50
2013,03,23,09,58,4.50
2013,03,23,09,59,4.60
2013,03,23,10,00,4.60
2013,03,23,10,02,4.60
2013,03,23,10,03,4.60
2013,03,23,10,04,4.60
2013,03,23,10,05,4.60
2013,03,23,10,06,4.60
2013,03,23,10,07,4.60
2013,03,23,10,08,4.60
2013,03,23,10,09,4.60
2013,03,23,10,11,4.60
2013,03,23,10,12,4.60
2013,03,23,10,13,4.60
2013,03,23,10,14,4.60
2013,03,23,10,16,4.70
2013,03,23,10,17,4.70
2013,03,23,10,18,4.70
2013,03,23,10,19,4.70
2013,03,23,10,21,4.70
2013,03,23,10,22,4.70
2013,03,23,10,23,4.80
2013,03,23,10,24,4.80
2013,03,23,10,25,4.80
2013,03,23,10,27,4.80
2013,03,23,10,28,4.90
2013,03,23,10,29,4.90
2013,03,23,10,30,4.90
2013,03,23,10,31,4.90
2013,03,23,10,33,4.90
2013,03,23,10,34,4.90
2013,03,23,10,35,4.90
2013,03,23,10,37,4.90
2013,03,23,10,38,5.00
2013,03,23,10,39,5.00
2013,03,23,10,40,5.10
2013,03,23,10,42,5.10
2013,03,23,10,43,5.20
2013,03,23,10,44,5.30
2013,03,23,10,46,5.40
2013,03,23,10,47,5.60
2013,03,23,10,48,5.60
2013,03,23,10,49,5.70
2013,03,23,10,51,5.70
2013,03,23,10,52,5.80
2013,03,23,10,53,5.80
2013,03,23,10,55,5.80
2013,03,23,10,56,5.80
2013,03,23,10,57,5.80
2013,03,23,10,58,5.80
2013,03,23,10,59,5.70
2013,03,23,11,01,5.80
2013,03,23,11,02,5.80
2013,03,23,11,03,5.90
2013,03,23,11,04,6.10
2013,03,23,11,05,6.10
2013,03,23,11,06,6.20
2013,03,23,11,07,6.20
2013,03,23,11,08,6.20
2013,03,23,11,09,6.20
2013,03,23,11,10,6.20
2013,03,23,11,11,6.20
2013,03,23,11,12,6.20
2013,03,23,11,13,6.20
2013,03,23,11,15,6.20
2013,03,23,11,16,6.20
2013,03,23,11,17,6.20
2013,03,23,11,18,6.20
2013,03,23,11,20,6.20
2013,03,23,11,21,6.20
2013,03,23,11,22,6.20
2013,03,23,11,23,6.20
2013,03,23,11,25,6.20
2013,03,23,11,26,6.20
2013,03,23,11,27,6.30
2013,03,23,11,28,6.40
2013,03,23,11,29,6.50
2013,03,23,11,30,6.60
2013,03,23,11,31,6.60
2013,03,23,11,32,6.60
2013,03,23,11,33,6.50
2013,03,23,11,34,6.50
2013,03,23,11,35,6.50
2013,03,23,11,36,6.60
2013,03,23,11,37,6.60
2013,03,23,11,38,6.60
2013,03,23,11,39,6.60
2013,03,23,11,40,6.60
2013,03,23,11,42,6.60
2013,03,23,11,43,6.60
2013,03,23,11,44,6.60
2013,03,23,11,45,6.60
2013,03,23,11,47,6.70
2013,03,23,11,48,6.80
2013,03,23,11,49,6.80
2013,03,23,11,51,6.80
2013,03,23,11,52,6.80
2013,03,23,11,53,6.80
2013,03,23,11,54,6.80
2013,03,23,11,56,6.80
2013,03,23,11,57,6.80
2013,03,23,11,58,6.70
2013,03,23,11,59,6.60
2013,03,23,12,01,6.60
2013,03,23,12,02,6.70
2013,03,23,12,03,6.70
2013,03,23,12,05,6.80
2013,03,23,12,06,6.90
2013,03,23,12,07,7.00
2013,03,23,12,09,7.10
2013,03,23,12,10,7.10
2013,03,23,12,11,6.90
2013,03,23,12,13,6.80
2013,03,23,12,14,6.80
2013,03,23,12,15,6.90
2013,03,23,12,16,6.90
2013,03,23,12,18,6.90
2013,03,23,12,19,6.90
2013,03,23,12,20,6.90
2013,03,23,12,21,6.90
2013,03,23,12,23,6.80
2013,03,23,12,24,6.80
2013,03,23,12,25,6.80
2013,03,23,12,26,6.90
2013,03,23,12,28,6.80
2013,03,23,12,29,6.80
2013,03,23,12,30,6.80
2013,03,23,12,31,6.90
2013,03,23,12,33,7.00
2013,03,23,12,34,7.10
2013,03,23,12,35,7.10
2013,03,23,12,36,7.10
2013,03,23,12,37,7.20
2013,03,23,12,38,7.20
2013,03,23,12,39,7.30
2013,03,23,12,40,7.40
2013,03,23,12,41,7.60
2013,03,23,12,42,7.60
2013,03,23,12,43,7.70
2013,03,23,12,44,7.70
2013,03,23,12,46,7.70
2013,03,23,12,47,7.60
2013,03,23,12,48,7.60
2013,03,23,12,49,7.60
2013,03,23,12,50,7.40
2013,03,23,12,51,7.40
2013,03,23,12,52,7.20
2013,03,23,12,53,7.20
2013,03,23,12,54,7.00
2013,03,23,12,56,7.00
2013,03,23,12,57,6.90
2013,03,23,12,58,7.00
2013,03,23,12,59,7.00
2013,03,23,13,00,7.00
2013,03,23,13,01,6.90
2013,03,23,13,02,6.90
2013,03,23,13,03,6.80
2013,03,23,13,04,6.80
2013,03,23,13,05,6.70
2013,03,23,13,07,6.70
2013,03,23,13,08,6.70
2013,03,23,13,09,6.70
2013,03,23,13,10,6.70
2013,03,23,13,11,6.70
2013,03,23,13,12,6.80
2013,03,23,13,13,6.80
2013,03,23,13,14,6.80
2013,03,23,13,15,6.80
2013,03,23,13,16,6.80
2013,03,23,13,18,6.80
2013,03,23,13,19,6.70
2013,03,23,13,20,6.70
2013,03,23,13,21,6.80
2013,03,23,13,23,6.80
2013,03,23,13,24,6.90
2013,03,23,13,25,7.00
2013,03,23,13,26,7.10
2013,03,23,13,28,7.10
2013,03,23,13,29,7.20
2013,03,23,13,30,7.20
2013,03,23,13,31,7.30
2013,03,23,13,33,7.30
2013,03,23,13,34,7.20
2013,03,23,13,35,7.10
2013,03,23,13,36,6.90
2013,03,23,13,38,6.80
2013,03,23,13,39,6.80
2013,03,23,13,40,6.90
2013,03,23,13,41,6.90
2013,03,23,13,43,6.90
2013,03,23,13,44,7.10
2013,03,23,13,45,7.10
2013,03,23,13,46,7.20
2013,03,23,13,47,7.30
2013,03,23,13,48,7.40
2013,03,23,13,49,7.40
2013,03,23,13,50,7.40
2013,03,23,13,52,7.40
2013,03,23,13,53,7.50
2013,03,23,13,54,7.60
2013,03,23,13,55,7.60
2013,03,23,13,57,7.60
2013,03,23,13,58,7.60
2013,03,23,13,59,7.60
2013,03,23,14,00,7.60
2013,03,23,14,01,7.60
2013,03,23,14,03,7.60
2013,03,23,14,04,7.60
2013,03,23,14,05,7.70
2013,03,23,14,06,7.80
2013,03,23,14,07,7.80
2013,03,23,14,08,7.80
2013,03,23,14,09,7.90
2013,03,23,14,10,7.90
2013,03,23,14,11,7.90
2013,03,23,14,12,7.80
2013,03,23,14,13,7.80
2013,03,23,14,14,7.70
2013,03,23,14,15,7.70
2013,03,23,14,16,7.70
2013,03,23,14,17,7.70
2013,03,23,14,19,7.70
2013,03,23,14,20,7.80
2013,03,23,14,21,7.80
2013,03,23,14,22,7.90
2013,03,23,14,23,7.90
2013,03,23,14,25,7.80
2013,03,23,14,26,7.80
2013,03,23,14,27,7.90
2013,03,23,14,28,7.90
2013,03,23,14,30,7.90
2013,03,23,14,31,7.90
2013,03,23,14,32,7.90
2013,03,23,14,33,7.90
2013,03,23,14,34,7.90
2013,03,23,14,35,7.90
2013,03,23,14,36,8.00
2013,03,23,14,37,8.00
2013,03,23,14,38,8.00
2013,03,23,14,40,8.10
2013,03,23,14,41,8.10
2013,03,23,14,42,8.20
2013,03,23,14,43,8.20
2013,03,23,14,44,8.20
2013,03,23,14,45,8.20
2013,03,23,14,46,8.20
2013,03,23,14,47,8.20
2013,03,23,14,48,8.10
2013,03,23,14,49,8.10
2013,03,23,14,50,8.00
2013,03,23,14,51,7.90
2013,03,23,14,52,7.90
2013,03,23,14,54,7.80
2013,03,23,14,55,7.70
2013,03,23,14,56,7.70
2013,03,23,14,57,7.70
2013,03,23,14,59,7.70
2013,03,23,15,00,7.70
2013,03,23,15,01,7.70
2013,03,23,15,02,7.60
2013,03,23,15,03,7.60
2013,03,23,15,05,7.60
2013,03,23,15,06,7.60
2013,03,23,15,07,7.40
2013,03,23,15,08,7.50
2013,03,23,15,10,7.60
2013,03,23,15,11,7.60
2013,03,23,15,12,7.70
2013,03,23,15,13,7.70
2013,03,23,15,15,7.70
2013,03,23,15,16,7.70
2013,03,23,15,17,7.70
2013,03,23,15,18,7.70
2013,03,23,15,19,7.70
2013,03,23,15,20,7.70
2013,03,23,15,21,7.80
2013,03,23,15,22,7.90
2013,03,23,15,23,7.90
2013,03,23,15,24,8.00
2013,03,23,15,26,8.00
2013,03,23,15,27,7.90
2013,03,23,15,28,7.90
2013,03,23,15,30,8.10
2013,03,23,15,31,8.10
2013,03,23,15,32,8.30
2013,03,23,15,33,8.30
2013,03,23,15,34,8.30
2013,03,23,15,35,8.40
2013,03,23,15,36,8.60
2013,03,23,15,37,8.60
2013,03,23,15,38,8.70
2013,03,23,15,39,8.70
2013,03,23,15,40,8.70
2013,03,23,15,41,8.80
2013,03,23,15,42,8.80
2013,03,23,15,43,8.90
2013,03,23,15,44,9.00
2013,03,23,15,45,9.10
2013,03,23,15,46,9.20
2013,03,23,15,47,9.20
2013,03,23,15,48,9.20
2013,03,23,15,49,9.30
2013,03,23,15,50,9.30
2013,03,23,15,51,9.30
2013,03,23,15,52,9.30
2013,03,23,15,54,9.20
2013,03,23,15,55,9.20
2013,03,23,15,56,9.30
2013,03,23,15,58,9.30
2013,03,23,15,59,9.20
2013,03,23,16,00,9.10
2013,03,23,16,01,9.10
2013,03,23,16,03,8.90
2013,03,23,16,04,8.90
2013,03,23,16,05,8.90
2013,03,23,16,06,8.90
2013,03,23,16,07,8.80
2013,03,23,16,08,8.80
2013,03,23,16,09,8.90
2013,03,23,16,10,8.90
2013,03,23,16,12,8.90
2013,03,23,16,13,8.90
2013,03,23,16,14,8.80
2013,03,23,16,16,8.80
2013,03,23,16,17,8.60
2013,03,23,16,18,8.50
2013,03,23,16,19,8.50
2013,03,23,16,20,8.50
2013,03,23,16,21,8.60
2013,03,23,16,22,8.60
2013,03,23,16,23,8.70
2013,03,23,16,24,8.70
2013,03,23,16,25,8.70
2013,03,23,16,27,8.70
2013,03,23,16,28,8.80
2013,03,23,16,29,8.80
2013,03,23,16,30,8.80
2013,03,23,16,32,8.70
2013,03,23,16,33,8.60
2013,03,23,16,34,8.60
2013,03,23,16,35,8.40
2013,03,23,16,37,8.40
2013,03,23,16,38,8.40
2013,03,23,16,39,8.60
2013,03,23,16,40,8.70
2013,03,23,16,42,8.70
2013,03,23,16,43,8.70
2013,03,23,16,44,8.70
2013,03,23,16,45,8.60
2013,03,23,16,46,8.40
2013,03,23,16,48,8.40
2013,03,23,16,49,8.30
2013,03,23,16,50,8.30
2013,03,23,16,52,8.30
2013,03,23,16,53,8.40
2013,03,23,16,54,8.50
2013,03,23,16,55,8.60
2013,03,23,16,57,8.70
2013,03,23,16,58,8.70
2013,03,23,16,59,8.70
2013,03,23,17,00,8.70
2013,03,23,17,02,8.70
2013,03,23,17,03,8.80
2013,03,23,17,04,8.90
2013,03,23,17,05,8.90
2013,03,23,17,07,8.80
2013,03,23,17,08,8.80
2013,03,23,17,09,8.70
2013,03,23,17,10,8.60
2013,03,23,17,11,8.60
2013,03,23,17,12,8.60
2013,03,23,17,13,8.50
2013,03,23,17,14,8.60
2013,03,23,17,16,8.60
2013,03,23,17,17,8.70
2013,03,23,17,18,8.70
2013,03,23,17,19,8.70
2013,03,23,17,21,8.80
2013,03,23,17,22,8.80
2013,03,23,17,23,8.90
2013,03,23,17,25,8.90
2013,03,23,17,26,8.90
2013,03,23,17,27,8.90
2013,03,23,17,28,8.90
2013,03,23,17,29,8.80
2013,03,23,17,30,8.90
2013,03,23,17,31,8.80
2013,03,23,17,32,8.80
2013,03,23,17,33,8.70
2013,03,23,17,35,8.70
2013,03,23,17,36,8.60
2013,03,23,17,37,8.60
2013,03,23,17,38,8.60
2013,03,23,17,40,8.70
2013,03,23,17,41,8.80
2013,03,23,17,42,8.90
2013,03,23,17,43,8.90
2013,03,23,17,44,8.80
2013,03,23,17,46,8.80
2013,03,23,17,47,8.80
2013,03,23,17,48,8.70
2013,03,23,17,49,8.70
2013,03,23,17,50,8.70
2013,03,23,17,52,8.70
2013,03,23,17,53,8.70
2013,03,23,17,54,8.70
2013,03,23,17,56,8.70
2013,03,23,17,57,8.60
2013,03,23,17,58,8.60
2013,03,23,17,59,8.40
2013,03,23,18,00,8.30
2013,03,23,18,01,8.30
2013,03,23,18,02,8.30
2013,03,23,18,03,8.30
2013,03,23,18,04,8.40
2013,03,23,18,06,8.40
2013,03,23,18,07,8.50
2013,03,23,18,08,8.60
2013,03,23,18,09,8.60
2013,03,23,18,10,8.60
2013,03,23,18,12,8.50
2013,03,23,18,13,8.40
2013,03,23,18,14,8.40
2013,03,23,18,15,8.40
2013,03,23,18,16,8.50
2013,03,23,18,18,8.60
2013,03,23,18,19,8.60
2013,03,23,18,20,8.60
2013,03,23,18,22,8.60
2013,03,23,18,23,8.50
2013,03,23,18,24,8.50
2013,03,23,18,25,8.40
2013,03,23,18,26,8.40
2013,03,23,18,28,8.50
2013,03,23,18,29,8.50
2013,03,23,18,30,8.60
2013,03,23,18,31,8.60
2013,03,23,18,32,8.60
2013,03,23,18,34,8.60
2013,03,23,18,35,8.40
2013,03,23,18,36,8.40
2013,03,23,18,37,8.40
2013,03,23,18,38,8.30
2013,03,23,18,40,8.30
2013,03,23,18,41,8.20
2013,03,23,18,42,8.20
2013,03,23,18,43,8.10
2013,03,23,18,44,8.10
2013,03,23,18,45,8.00
2013,03,23,18,46,7.90
2013,03,23,18,47,7.90
2013,03,23,18,49,7.80
2013,03,23,18,50,7.80
2013,03,23,18,51,7.70
2013,03,23,18,52,7.70
2013,03,23,18,54,7.70
2013,03,23,18,55,7.60
2013,03,23,18,56,7.50
2013,03,23,18,57,7.50
2013,03,23,18,58,7.40
2013,03,23,18,59,7.40
2013,03,23,19,00,7.40
2013,03,23,19,01,7.30
2013,03,23,19,02,7.30
2013,03,23,19,04,7.30
2013,03,23,19,05,7.30
2013,03,23,19,06,7.20
2013,03,23,19,07,7.20
2013,03,23,19,08,7.20
2013,03,23,19,10,7.20
2013,03,23,19,11,7.10
2013,03,23,19,12,7.10
2013,03,23,19,14,7.10
2013,03,23,19,15,7.10
2013,03,23,19,16,7.00
2013,03,23,19,17,7.00
2013,03,23,19,19,6.90
2013,03,23,19,20,6.90
2013,03,23,19,21,6.90
2013,03,23,19,22,6.80
2013,03,23,19,23,6.80
2013,03,23,19,24,6.80
2013,03,23,19,25,6.80
2013,03,23,19,26,6.80
2013,03,23,19,27,6.80
2013,03,23,19,28,6.80
2013,03,23,19,29,6.70
2013,03,23,19,30,6.70
2013,03,23,19,31,6.70
2013,03,23,19,32,6.70
2013,03,23,19,33,6.60
2013,03,23,19,34,6.60
2013,03,23,19,35,6.60
2013,03,23,19,36,6.60
2013,03,23,19,37,6.60
2013,03,23,19,38,6.50
2013,03,23,19,39,6.50
2013,03,23,19,40,6.50
2013,03,23,19,41,6.50
2013,03,23,19,42,6.40
2013,03,23,19,43,6.40
2013,03,23,19,44,6.40
2013,03,23,19,45,6.40
2013,03,23,19,46,6.40
2013,03,23,19,47,6.30
2013,03,23,19,49,6.30
2013,03,23,19,50,6.30
2013,03,23,19,51,6.20
2013,03,23,19,52,6.20
2013,03,23,19,54,6.20
2013,03,23,19,55,6.10
2013,03,23,19,56,6.10
2013,03,23,19,57,6.00
2013,03,23,19,59,6.00
2013,03,23,20,00,5.90
2013,03,23,20,01,5.90
2013,03,23,20,02,5.80
2013,03,23,20,04,5.80
2013,03,23,20,05,5.80
2013,03,23,20,06,5.70
2013,03,23,20,07,5.70
2013,03,23,20,09,5.70
2013,03,23,20,10,5.70
2013,03,23,20,11,5.70
2013,03,23,20,12,5.70
2013,03,23,20,13,5.60
2013,03,23,20,15,5.60
2013,03,23,20,16,5.60
2013,03,23,20,17,5.60
2013,03,23,20,18,5.60
2013,03,23,20,19,5.60
2013,03,23,20,20,5.60
2013,03,23,20,21,5.60
2013,03,23,20,22,5.60
2013,03,23,20,23,5.60
2013,03,23,20,24,5.70
2013,03,23,20,25,5.70
2013,03,23,20,26,5.70
2013,03,23,20,27,5.70
2013,03,23,20,28,5.70
2013,03,23,20,29,5.70
2013,03,23,20,30,5.70
2013,03,23,20,31,5.70
2013,03,23,20,32,5.70
2013,03,23,20,33,5.80
2013,03,23,20,34,5.80
2013,03,23,20,35,5.80
2013,03,23,20,36,5.80
2013,03,23,20,37,5.80
2013,03,23,20,39,5.70
2013,03,23,20,40,5.70
2013,03,23,20,41,5.70
2013,03,23,20,42,5.70
2013,03,23,20,43,5.70
2013,03,23,20,44,5.70
2013,03,23,20,45,5.70
2013,03,23,20,46,5.70
2013,03,23,20,47,5.70
2013,03,23,20,48,5.70
2013,03,23,20,49,5.70
2013,03,23,20,50,5.70
2013,03,23,20,51,5.70
2013,03,23,20,52,5.70
2013,03,23,20,53,5.70
2013,03,23,20,54,5.70
2013,03,23,20,55,5.70
2013,03,23,20,56,5.70
2013,03,23,20,57,5.70
2013,03,23,20,58,5.70
2013,03,23,20,59,5.70
2013,03,23,21,00,5.70
2013,03,23,21,02,5.70
2013,03,23,21,03,5.70
2013,03,23,21,04,5.70
2013,03,23,21,06,5.70
2013,03,23,21,07,5.70
2013,03,23,21,08,5.70
2013,03,23,21,09,5.70
2013,03,23,21,11,5.70
2013,03,23,21,12,5.70